Location: B�di�
(14.6834°N, 3.1047°W)
Time: 07:25:28
(UTC+00:00)

SL-4 R/B - Pass Details

Date: 24 January 2020
Orbit: 428 x 666 km, 51.6° (Epoch: 17 February)

Event Time Altitude Azimuth Distance (km) Brightness Sun altitude
Rises 19:33:53 0° 188° (S) 2,988 6.1 -20.8°
Reaches altitude 10° 19:36:46 10° 172° (S) 2,070 5.0 -21.5°
Enters shadow 19:38:52 18° 148° (SSE) 1,594 4.2 -22.0°
